Time,TemperatureF,DewpointF,PressureIn,WindDirection,WindDirectionDegrees,WindSpeedMPH,WindSpeedGustMPH,Humidity,HourlyPrecipIn,Conditions,Clouds,dailyrainin,SoftwareType,DateUTC
2013-05-08 00:00:00,56.5,55.9,29.92,SSE,148,0.0,2.0,98,0.00,,,0.02,Wunderground v.1.15,2013-05-08 04:00:00,
2013-05-08 00:10:00,56.3,55.7,29.92,SSE,148,0.0,2.0,98,0.00,,,0.00,Wunderground v.1.15,2013-05-08 04:10:00,
2013-05-08 00:15:00,56.3,55.7,29.92,SE,146,0.0,2.0,98,0.00,,,0.00,Wunderground v.1.15,2013-05-08 04:15:00,
2013-05-08 00:20:00,56.3,55.7,29.92,SSE,148,0.0,2.0,98,0.00,,,0.00,Wunderground v.1.15,2013-05-08 04:20:00,
2013-05-08 00:30:00,56.3,55.7,29.92,SSE,148,0.0,2.0,98,0.00,,,0.00,Wunderground v.1.15,2013-05-08 04:30:00,
2013-05-08 00:35:00,56.4,55.8,29.92,SSE,148,0.0,2.0,98,0.00,,,0.00,Wunderground v.1.15,2013-05-08 04:35:00,
2013-05-08 00:45:00,56.5,55.9,29.92,SSE,148,0.0,2.0,98,0.00,,,0.00,Wunderground v.1.15,2013-05-08 04:45:00,
2013-05-08 00:55:00,56.4,55.8,29.92,SSE,148,0.0,2.0,98,0.00,,,0.00,Wunderground v.1.15,2013-05-08 04:55:00,
2013-05-08 01:05:00,56.2,55.6,29.92,SSE,148,0.0,2.0,98,0.00,,,0.00,Wunderground v.1.15,2013-05-08 05:05:00,
2013-05-08 01:14:00,56.1,55.5,29.92,SSE,148,0.0,2.0,98,0.00,,,0.00,Wunderground v.1.15,2013-05-08 05:14:00,
2013-05-08 01:20:00,56.0,55.4,29.92,SSE,148,0.0,2.0,98,0.00,,,0.00,Wunderground v.1.15,2013-05-08 05:20:00,
2013-05-08 01:29:00,55.6,55.0,29.91,SSE,148,0.0,2.0,98,0.00,,,0.00,Wunderground v.1.15,2013-05-08 05:29:00,
2013-05-08 01:40:00,55.4,54.8,29.91,SSE,148,0.0,2.0,98,0.00,,,0.00,Wunderground v.1.15,2013-05-08 05:40:00,
2013-05-08 01:49:00,55.3,54.7,29.91,SSE,148,0.0,2.0,98,0.00,,,0.00,Wunderground v.1.15,2013-05-08 05:49:00,
2013-05-08 02:00:00,55.2,54.6,29.90,SSE,148,0.0,2.0,98,0.00,,,0.00,Wunderground v.1.15,2013-05-08 06:00:00,
2013-05-08 02:09:00,55.0,54.4,29.90,SSE,148,0.0,2.0,98,0.00,,,0.00,Wunderground v.1.15,2013-05-08 06:09:00,
2013-05-08 02:15:00,54.9,54.3,29.90,SSE,148,0.0,2.0,98,0.00,,,0.00,Wunderground v.1.15,2013-05-08 06:15:00,
2013-05-08 02:24:00,54.8,54.2,29.90,SSE,148,0.0,2.0,98,0.00,,,0.00,Wunderground v.1.15,2013-05-08 06:24:00,
2013-05-08 02:35:00,54.7,54.4,29.90,SSE,148,0.0,2.0,99,0.00,,,0.00,Wunderground v.1.15,2013-05-08 06:35:00,
2013-05-08 02:45:00,54.6,54.0,29.89,SSE,148,0.0,2.0,98,0.00,,,0.00,Wunderground v.1.15,2013-05-08 06:45:00,
2013-05-08 02:55:00,54.4,53.8,29.90,SSE,148,0.0,2.0,98,0.00,,,0.00,Wunderground v.1.15,2013-05-08 06:55:00,
2013-05-08 03:05:00,54.2,53.6,29.90,SSE,148,0.0,2.0,98,0.00,,,0.00,Wunderground v.1.15,2013-05-08 07:05:00,
2013-05-08 03:14:00,53.9,53.3,29.90,SSE,148,0.0,2.0,98,0.00,,,0.00,Wunderground v.1.15,2013-05-08 07:14:00,
2013-05-08 03:25:00,53.7,53.1,29.89,SSE,148,0.0,2.0,98,0.00,,,0.00,Wunderground v.1.15,2013-05-08 07:25:00,
2013-05-08 03:34:00,53.6,53.3,29.89,SSE,148,0.0,2.0,99,0.00,,,0.00,Wunderground v.1.15,2013-05-08 07:34:00,
2013-05-08 03:45:00,53.5,53.2,29.89,SSE,148,0.0,2.0,99,0.00,,,0.00,Wunderground v.1.15,2013-05-08 07:45:00,
2013-05-08 03:55:00,53.3,53.0,29.89,SSE,148,0.0,2.0,99,0.00,,,0.00,Wunderground v.1.15,2013-05-08 07:55:00,
2013-05-08 04:04:00,53.2,52.9,29.90,SSE,148,0.0,2.0,99,0.00,,,0.00,Wunderground v.1.15,2013-05-08 08:04:00,
2013-05-08 04:15:00,53.1,52.8,29.90,SSE,148,0.0,2.0,99,0.00,,,0.00,Wunderground v.1.15,2013-05-08 08:15:00,
2013-05-08 04:24:00,53.0,52.7,29.90,SSE,148,0.0,2.0,99,0.00,,,0.00,Wunderground v.1.15,2013-05-08 08:24:00,
2013-05-08 04:30:00,52.9,52.6,29.90,SSE,148,0.0,2.0,99,0.00,,,0.00,Wunderground v.1.15,2013-05-08 08:30:00,
2013-05-08 04:39:00,52.8,52.5,29.90,SSE,148,0.0,2.0,99,0.00,,,0.00,Wunderground v.1.15,2013-05-08 08:39:00,
2013-05-08 04:50:00,52.8,52.5,29.90,SSE,148,0.0,2.0,99,0.00,,,0.00,Wunderground v.1.15,2013-05-08 08:50:00,
2013-05-08 04:59:00,52.7,52.4,29.90,SSE,148,0.0,2.0,99,0.00,,,0.00,Wunderground v.1.15,2013-05-08 08:59:00,
2013-05-08 05:05:00,52.6,52.3,29.90,SSE,148,0.0,2.0,99,0.00,,,0.00,Wunderground v.1.15,2013-05-08 09:05:00,
2013-05-08 05:15:00,52.6,52.3,29.90,SSE,148,0.0,2.0,99,0.00,,,0.00,Wunderground v.1.15,2013-05-08 09:15:00,
2013-05-08 05:25:00,52.4,52.1,29.90,SSE,148,0.0,2.0,99,0.00,,,0.00,Wunderground v.1.15,2013-05-08 09:25:00,
2013-05-08 05:35:00,52.1,51.8,29.90,SSE,148,0.0,2.0,99,0.00,,,0.00,Wunderground v.1.15,2013-05-08 09:35:00,
2013-05-08 05:45:00,51.8,51.5,29.90,SSE,148,0.0,2.0,99,0.00,,,0.00,Wunderground v.1.15,2013-05-08 09:45:00,
2013-05-08 05:55:00,51.8,51.5,29.90,SSE,148,0.0,2.0,99,0.00,,,0.00,Wunderground v.1.15,2013-05-08 09:55:00,
2013-05-08 06:04:00,51.8,51.5,29.90,SSE,148,0.0,2.0,99,0.00,,,0.00,Wunderground v.1.15,2013-05-08 10:04:00,
2013-05-08 06:10:00,51.8,51.5,29.90,SSE,148,0.0,2.0,99,0.00,,,0.00,Wunderground v.1.15,2013-05-08 10:10:00,
2013-05-08 06:19:00,51.7,51.4,29.91,SSE,148,0.0,2.0,99,0.00,,,0.00,Wunderground v.1.15,2013-05-08 10:19:00,
2013-05-08 06:25:00,51.6,51.3,29.91,SSE,148,0.0,2.0,99,0.00,,,0.00,Wunderground v.1.15,2013-05-08 10:25:00,
2013-05-08 06:34:00,51.6,51.3,29.91,SSE,148,0.0,2.0,99,0.00,,,0.00,Wunderground v.1.15,2013-05-08 10:34:00,
2013-05-08 06:40:00,51.6,51.3,29.91,SSE,148,0.0,2.0,99,0.00,,,0.00,Wunderground v.1.15,2013-05-08 10:40:00,
2013-05-08 06:50:00,51.6,51.3,29.92,SSE,148,0.0,2.0,99,0.00,,,0.00,Wunderground v.1.15,2013-05-08 10:50:00,
2013-05-08 07:00:00,51.6,51.3,29.92,SSE,148,0.0,2.0,99,0.00,,,0.00,Wunderground v.1.15,2013-05-08 11:00:00,
2013-05-08 07:09:00,51.6,51.3,29.92,SSE,148,0.0,2.0,99,0.00,,,0.00,Wunderground v.1.15,2013-05-08 11:09:00,
2013-05-08 07:15:00,51.6,51.3,29.92,SSE,148,0.0,2.0,99,0.00,,,0.00,Wunderground v.1.15,2013-05-08 11:15:00,
2013-05-08 07:25:00,51.6,51.3,29.92,SSE,148,0.0,2.0,99,0.00,,,0.01,Wunderground v.1.15,2013-05-08 11:25:00,
2013-05-08 07:34:00,51.6,51.3,29.93,SSE,148,0.0,2.0,99,0.00,,,0.01,Wunderground v.1.15,2013-05-08 11:34:00,
2013-05-08 07:40:00,51.7,51.4,29.93,SSE,148,0.0,2.0,99,0.00,,,0.01,Wunderground v.1.15,2013-05-08 11:40:00,
2013-05-08 07:50:00,52.0,51.7,29.93,SSE,148,0.0,2.0,99,0.00,,,0.01,Wunderground v.1.15,2013-05-08 11:50:00,
2013-05-08 08:00:00,52.5,52.2,29.94,SSE,148,0.0,2.0,99,0.00,,,0.01,Wunderground v.1.15,2013-05-08 12:00:00,
2013-05-08 08:09:00,53.0,52.7,29.94,SSE,148,0.0,2.0,99,0.00,,,0.01,Wunderground v.1.15,2013-05-08 12:09:00,
2013-05-08 08:20:00,53.5,53.2,29.94,SSE,148,0.0,2.0,99,0.00,,,0.01,Wunderground v.1.15,2013-05-08 12:20:00,
2013-05-08 08:30:00,54.0,53.7,29.94,SE,146,0.0,2.0,99,0.00,,,0.01,Wunderground v.1.15,2013-05-08 12:30:00,
2013-05-08 08:39:00,54.8,54.8,29.94,SSE,147,0.0,2.0,100,0.00,,,0.01,Wunderground v.1.15,2013-05-08 12:39:00,
2013-05-08 08:45:00,55.0,55.0,29.95,SE,146,0.0,2.0,100,0.00,,,0.01,Wunderground v.1.15,2013-05-08 12:45:00,
2013-05-08 08:54:00,56.0,56.0,29.95,SSE,147,0.0,2.0,100,0.00,,,0.01,Wunderground v.1.15,2013-05-08 12:54:00,
2013-05-08 09:05:00,56.8,56.8,29.95,SE,145,0.0,2.0,100,0.00,,,0.01,Wunderground v.1.15,2013-05-08 13:05:00,
2013-05-08 09:15:00,58.1,58.1,29.95,SE,139,0.0,2.0,100,0.00,,,0.01,Wunderground v.1.15,2013-05-08 13:15:00,
2013-05-08 09:25:00,59.1,59.1,29.96,SE,138,0.0,2.0,100,0.00,,,0.01,Wunderground v.1.15,2013-05-08 13:25:00,
2013-05-08 09:35:00,59.5,59.5,29.95,SE,138,0.0,2.0,100,0.00,,,0.01,Wunderground v.1.15,2013-05-08 13:35:00,
2013-05-08 09:44:00,59.6,59.3,29.95,SE,139,0.0,2.0,99,0.00,,,0.01,Wunderground v.1.15,2013-05-08 13:44:00,
2013-05-08 09:50:00,60.2,59.9,29.95,SE,138,0.0,2.0,99,0.00,,,0.01,Wunderground v.1.15,2013-05-08 13:50:00,
2013-05-08 09:59:00,61.3,61.0,29.95,SE,130,0.0,2.0,99,0.00,,,0.01,Wunderground v.1.15,2013-05-08 13:59:00,
2013-05-08 10:10:00,61.9,61.6,29.95,SE,145,0.0,2.0,99,0.00,,,0.01,Wunderground v.1.15,2013-05-08 14:10:00,
2013-05-08 10:20:00,62.4,61.5,29.95,SE,136,1.0,1.0,97,0.00,,,0.01,Wunderground v.1.15,2013-05-08 14:20:00,
2013-05-08 10:29:00,63.4,62.2,29.96,SSE,158,0.0,2.0,96,0.00,,,0.01,Wunderground v.1.15,2013-05-08 14:29:00,
2013-05-08 10:35:00,63.5,61.7,29.96,SSE,153,0.0,2.0,94,0.00,,,0.01,Wunderground v.1.15,2013-05-08 14:35:00,
2013-05-08 10:44:00,65.2,61.6,29.95,ESE,113,1.0,2.0,88,0.00,,,0.01,Wunderground v.1.15,2013-05-08 14:44:00,
2013-05-08 10:55:00,67.2,62.2,29.95,West,276,1.0,2.0,84,0.00,,,0.01,Wunderground v.1.15,2013-05-08 14:55:00,
2013-05-08 11:05:00,69.4,63.7,29.95,East,96,1.0,2.0,82,0.00,,,0.01,Wunderground v.1.15,2013-05-08 15:05:00,
2013-05-08 11:10:00,70.0,64.2,29.95,SW,218,1.0,1.0,82,0.00,,,0.01,Wunderground v.1.15,2013-05-08 15:10:00,
2013-05-08 11:19:00,70.9,62.2,29.95,SW,214,2.0,2.0,74,0.00,,,0.01,Wunderground v.1.15,2013-05-08 15:19:00,
2013-05-08 11:25:00,71.8,63.8,29.95,NE,43,2.0,2.0,76,0.00,,,0.01,Wunderground v.1.15,2013-05-08 15:25:00,
2013-05-08 11:34:00,72.2,61.0,29.94,ENE,67,2.0,4.0,68,0.00,,,0.01,Wunderground v.1.15,2013-05-08 15:34:00,
2013-05-08 11:45:00,72.9,60.0,29.94,SSE,168,2.0,4.0,64,0.00,,,0.01,Wunderground v.1.15,2013-05-08 15:45:00,
2013-05-08 11:55:00,74.1,60.2,29.95,SE,133,2.0,3.0,62,0.00,,,0.01,Wunderground v.1.15,2013-05-08 15:55:00,
2013-05-08 12:04:00,74.7,61.7,29.95,ESE,122,2.0,2.0,64,0.00,,,0.01,Wunderground v.1.15,2013-05-08 16:04:00,
2013-05-08 12:14:00,73.6,60.2,29.95,SSE,160,2.0,2.0,63,0.00,,,0.01,Wunderground v.1.15,2013-05-08 16:14:00,
2013-05-08 12:20:00,73.7,61.2,29.95,SSW,209,2.0,2.0,65,0.00,,,0.01,Wunderground v.1.15,2013-05-08 16:20:00,
2013-05-08 12:29:00,75.0,62.0,29.94,ENE,73,2.0,2.0,64,0.00,,,0.01,Wunderground v.1.15,2013-05-08 16:29:00,
2013-05-08 12:39:00,75.1,61.2,29.94,SSW,212,1.0,2.0,62,0.00,,,0.01,Wunderground v.1.15,2013-05-08 16:39:00,
2013-05-08 12:45:00,75.2,62.2,29.94,SSE,157,2.0,3.0,64,0.00,,,0.01,Wunderground v.1.15,2013-05-08 16:45:00,
2013-05-08 12:55:00,75.1,60.7,29.94,East,96,2.0,2.0,61,0.00,,,0.01,Wunderground v.1.15,2013-05-08 16:55:00,
2013-05-08 13:04:00,75.3,62.3,29.93,ESE,111,3.0,5.0,64,0.00,,,0.01,Wunderground v.1.15,2013-05-08 17:04:00,
2013-05-08 13:14:00,76.4,62.9,29.93,SSE,159,2.0,3.0,63,0.00,,,0.01,Wunderground v.1.15,2013-05-08 17:14:00,
2013-05-08 13:25:00,77.3,62.8,29.92,SE,134,2.0,2.0,61,0.00,,,0.01,Wunderground v.1.15,2013-05-08 17:25:00,
2013-05-08 13:34:00,76.3,60.4,29.92,SE,124,2.0,5.0,58,0.00,,,0.01,Wunderground v.1.15,2013-05-08 17:34:00,
2013-05-08 13:39:00,76.3,61.4,29.92,East,96,3.0,3.0,60,0.00,,,0.01,Wunderground v.1.15,2013-05-08 17:39:00,
2013-05-08 13:49:00,77.1,63.5,29.92,SSE,147,1.0,2.0,63,0.00,,,0.01,Wunderground v.1.15,2013-05-08 17:49:00,
2013-05-08 14:00:00,75.9,62.4,29.92,ESE,118,1.0,3.0,63,0.00,,,0.01,Wunderground v.1.15,2013-05-08 18:00:00,
2013-05-08 14:10:00,76.4,63.3,29.91,ESE,122,2.0,2.0,64,0.00,,,0.01,Wunderground v.1.15,2013-05-08 18:10:00,
2013-05-08 14:19:00,76.0,63.4,29.91,ESE,114,2.0,2.0,65,0.00,,,0.01,Wunderground v.1.15,2013-05-08 18:19:00,
2013-05-08 14:25:00,75.2,62.6,29.91,ESE,113,2.0,2.0,65,0.00,,,0.01,Wunderground v.1.15,2013-05-08 18:25:00,
2013-05-08 14:35:00,74.7,60.4,29.91,ESE,102,1.0,2.0,61,0.00,,,0.01,Wunderground v.1.15,2013-05-08 18:35:00,
2013-05-08 14:44:00,74.9,60.5,29.91,SE,136,1.0,2.0,61,0.00,,,0.01,Wunderground v.1.15,2013-05-08 18:44:00,
2013-05-08 14:50:00,74.7,63.4,29.91,ESE,114,1.0,1.0,68,0.00,,,0.01,Wunderground v.1.15,2013-05-08 18:50:00,
2013-05-08 15:00:00,72.9,63.3,29.91,SSW,205,0.0,2.0,72,0.00,,,0.01,Wunderground v.1.15,2013-05-08 19:00:00,
2013-05-08 15:09:00,71.2,65.8,29.92,SSW,210,0.0,2.0,83,0.00,,,0.01,Wunderground v.1.15,2013-05-08 19:09:00,
2013-05-08 15:15:00,71.3,65.5,29.91,SW,218,1.0,2.0,82,0.00,,,0.01,Wunderground v.1.15,2013-05-08 19:15:00,
2013-05-08 15:25:00,72.4,64.4,29.91,SW,232,1.0,2.0,76,0.00,,,0.01,Wunderground v.1.15,2013-05-08 19:25:00,
2013-05-08 15:34:00,73.9,65.9,29.91,SW,214,0.0,2.0,76,0.00,,,0.01,Wunderground v.1.15,2013-05-08 19:34:00,
2013-05-08 15:45:00,76.1,66.8,29.90,SW,221,1.0,2.0,73,0.00,,,0.01,Wunderground v.1.15,2013-05-08 19:45:00,
2013-05-08 15:55:00,77.2,64.1,29.89,South,188,3.0,4.0,64,0.00,,,0.01,Wunderground v.1.15,2013-05-08 19:55:00,
2013-05-08 16:04:00,76.9,63.8,29.90,NNE,33,2.0,3.0,64,0.00,,,0.01,Wunderground v.1.15,2013-05-08 20:04:00,
2013-05-08 16:15:00,76.8,65.0,29.90,SSW,212,0.0,2.0,67,0.00,,,0.01,Wunderground v.1.15,2013-05-08 20:15:00,
2013-05-08 16:25:00,78.8,63.3,29.90,ESE,106,1.0,2.0,59,0.00,,,0.01,Wunderground v.1.15,2013-05-08 20:25:00,
2013-05-08 16:34:00,79.0,59.3,29.89,SE,139,1.0,3.0,51,0.00,,,0.01,Wunderground v.1.15,2013-05-08 20:34:00,
2013-05-08 16:40:00,79.6,58.2,29.89,ESE,115,1.0,2.0,48,0.00,,,0.01,Wunderground v.1.15,2013-05-08 20:40:00,
2013-05-08 16:50:00,78.8,56.9,29.89,NE,37,2.0,2.0,47,0.00,,,0.01,Wunderground v.1.15,2013-05-08 20:50:00,
2013-05-08 16:59:00,79.1,60.5,29.89,ESE,112,0.0,2.0,53,0.00,,,0.01,Wunderground v.1.15,2013-05-08 20:59:00,
2013-05-08 17:10:00,78.9,61.9,29.90,ENE,73,1.0,3.0,56,0.00,,,0.01,Wunderground v.1.15,2013-05-08 21:10:00,
2013-05-08 17:19:00,76.2,61.8,29.90,West,278,1.0,2.0,61,0.00,,,0.01,Wunderground v.1.15,2013-05-08 21:19:00,
2013-05-08 17:30:00,73.9,64.3,29.90,WNW,303,0.0,2.0,72,0.00,,,0.01,Wunderground v.1.15,2013-05-08 21:30:00,
2013-05-08 17:40:00,74.0,64.4,29.90,WNW,288,0.0,2.0,72,0.00,,,0.01,Wunderground v.1.15,2013-05-08 21:40:00,
2013-05-08 17:49:00,74.1,60.7,29.90,WSW,250,0.0,2.0,63,0.00,,,0.01,Wunderground v.1.15,2013-05-08 21:49:00,
2013-05-08 17:55:00,73.7,63.7,29.90,WNW,285,0.0,2.0,71,0.00,,,0.01,Wunderground v.1.15,2013-05-08 21:55:00,
2013-05-08 18:04:00,71.8,63.1,29.91,NNE,32,1.0,3.0,74,0.00,,,0.01,Wunderground v.1.15,2013-05-08 22:04:00,
2013-05-08 18:14:00,69.8,59.2,29.91,NE,37,4.0,4.0,69,0.00,,,0.01,Wunderground v.1.15,2013-05-08 22:14:00,
2013-05-08 18:20:00,68.3,58.5,29.92,NNE,26,3.0,4.0,71,0.00,,,0.02,Wunderground v.1.15,2013-05-08 22:20:00,
2013-05-08 18:25:00,65.9,60.2,29.92,NNE,27,4.0,8.0,82,1.40,,,0.07,Wunderground v.1.15,2013-05-08 22:25:00,
2013-05-08 18:34:00,63.5,60.2,29.92,SW,229,1.0,3.0,89,0.16,,,0.24,Wunderground v.1.15,2013-05-08 22:34:00,
2013-05-08 18:39:00,63.2,60.2,29.92,NW,318,0.0,2.0,90,0.07,,,0.24,Wunderground v.1.15,2013-05-08 22:39:00,
2013-05-08 18:50:00,62.9,60.8,29.92,NW,325,0.0,2.0,93,0.00,,,0.24,Wunderground v.1.15,2013-05-08 22:50:00,
2013-05-08 18:59:00,62.7,60.9,29.92,WNW,287,0.0,2.0,94,0.00,,,0.24,Wunderground v.1.15,2013-05-08 22:59:00,
2013-05-08 19:05:00,62.6,61.1,29.93,WNW,287,0.0,2.0,95,0.00,,,0.24,Wunderground v.1.15,2013-05-08 23:05:00,
2013-05-08 19:14:00,62.6,61.1,29.94,WNW,287,0.0,2.0,95,0.00,,,0.24,Wunderground v.1.15,2013-05-08 23:14:00,
2013-05-08 19:20:00,62.5,61.3,29.94,WNW,287,0.0,2.0,96,0.00,,,0.24,Wunderground v.1.15,2013-05-08 23:20:00,
2013-05-08 19:30:00,62.3,60.8,29.94,WNW,287,0.0,2.0,95,0.00,,,0.24,Wunderground v.1.15,2013-05-08 23:30:00,
2013-05-08 19:35:00,62.0,60.6,29.94,WNW,287,0.0,2.0,95,0.00,,,0.24,Wunderground v.1.15,2013-05-08 23:35:00,
2013-05-08 19:44:00,61.7,60.5,29.93,WNW,287,0.0,2.0,96,0.00,,,0.24,Wunderground v.1.15,2013-05-08 23:44:00,
2013-05-08 19:50:00,61.5,60.1,29.93,WNW,287,0.0,2.0,95,0.00,,,0.24,Wunderground v.1.15,2013-05-08 23:50:00,
2013-05-08 20:00:00,61.2,60.1,29.93,WNW,287,0.0,2.0,96,0.00,,,0.24,Wunderground v.1.15,2013-05-09 00:00:00,
2013-05-08 20:09:00,61.0,59.9,29.94,WNW,294,0.0,2.0,96,0.00,,,0.24,Wunderground v.1.15,2013-05-09 00:09:00,
2013-05-08 20:15:00,61.2,60.3,29.95,WNW,294,0.0,2.0,97,0.00,,,0.24,Wunderground v.1.15,2013-05-09 00:15:00,
2013-05-08 20:25:00,61.0,60.1,29.96,NNE,29,2.0,3.0,97,0.00,,,0.25,Wunderground v.1.15,2013-05-09 00:25:00,
2013-05-08 20:35:00,61.3,60.4,29.97,ESE,118,1.0,2.0,97,0.06,,,0.26,Wunderground v.1.15,2013-05-09 00:35:00,
2013-05-08 20:45:00,61.3,60.4,29.96,SE,134,0.0,2.0,97,0.13,,,0.31,Wunderground v.1.15,2013-05-09 00:45:00,
2013-05-08 20:55:00,61.1,60.2,29.96,South,172,0.0,2.0,97,0.06,,,0.32,Wunderground v.1.15,2013-05-09 00:55:00,
2013-05-08 21:05:00,60.9,60.0,29.97,South,172,0.0,2.0,97,0.04,,,0.32,Wunderground v.1.15,2013-05-09 01:05:00,
2013-05-08 21:14:00,60.7,59.8,29.97,South,170,0.0,2.0,97,0.00,,,0.32,Wunderground v.1.15,2013-05-09 01:14:00,
2013-05-08 21:20:00,60.7,59.8,29.97,South,172,0.0,2.0,97,0.31,,,0.34,Wunderground v.1.15,2013-05-09 01:20:00,
2013-05-08 21:30:00,60.5,59.6,29.97,South,171,0.0,2.0,97,0.06,,,0.35,Wunderground v.1.15,2013-05-09 01:30:00,
2013-05-08 21:39:00,60.6,60.0,29.97,South,171,0.0,2.0,98,0.05,,,0.35,Wunderground v.1.15,2013-05-09 01:39:00,
2013-05-08 21:50:00,60.5,59.9,29.97,South,171,0.0,2.0,98,0.00,,,0.35,Wunderground v.1.15,2013-05-09 01:50:00,
2013-05-08 22:00:00,60.4,59.8,29.97,South,171,0.0,2.0,98,0.00,,,0.35,Wunderground v.1.15,2013-05-09 02:00:00,
2013-05-08 22:10:00,60.2,59.6,29.98,South,170,0.0,2.0,98,0.00,,,0.35,Wunderground v.1.15,2013-05-09 02:10:00,
2013-05-08 22:19:00,60.2,59.6,29.98,South,171,0.0,2.0,98,0.00,,,0.35,Wunderground v.1.15,2013-05-09 02:19:00,
2013-05-08 22:24:00,60.1,59.5,29.98,South,171,0.0,2.0,98,0.00,,,0.35,Wunderground v.1.15,2013-05-09 02:24:00,
2013-05-08 22:30:00,60.1,59.5,29.98,South,171,0.0,2.0,98,0.00,,,0.35,Wunderground v.1.15,2013-05-09 02:30:00,
2013-05-08 22:40:00,59.9,59.3,29.98,South,171,0.0,2.0,98,0.00,,,0.35,Wunderground v.1.15,2013-05-09 02:40:00,
2013-05-08 22:49:00,59.7,59.1,29.98,South,171,0.0,2.0,98,0.00,,,0.35,Wunderground v.1.15,2013-05-09 02:49:00,
2013-05-08 22:55:00,59.7,59.1,29.98,South,171,0.0,2.0,98,0.00,,,0.35,Wunderground v.1.15,2013-05-09 02:55:00,
2013-05-08 23:04:00,59.8,59.2,29.97,SSW,210,0.0,2.0,98,0.00,,,0.36,Wunderground v.1.15,2013-05-09 03:04:00,
2013-05-08 23:10:00,59.7,59.1,29.97,SSW,210,0.0,2.0,98,0.00,,,0.36,Wunderground v.1.15,2013-05-09 03:10:00,
2013-05-08 23:15:00,59.7,59.1,29.97,SSW,210,0.0,2.0,98,0.00,,,0.36,Wunderground v.1.15,2013-05-09 03:15:00,
2013-05-08 23:25:00,59.6,59.0,29.97,SSW,210,0.0,2.0,98,0.00,,,0.36,Wunderground v.1.15,2013-05-09 03:25:00,
2013-05-08 23:34:00,59.4,58.8,29.97,SSW,210,0.0,2.0,98,0.00,,,0.36,Wunderground v.1.15,2013-05-09 03:34:00,
2013-05-08 23:40:00,59.4,58.8,29.97,SSW,210,0.0,2.0,98,0.00,,,0.36,Wunderground v.1.15,2013-05-09 03:40:00,
2013-05-08 23:50:00,59.1,58.5,29.96,SSW,210,0.0,2.0,98,0.00,,,0.36,Wunderground v.1.15,2013-05-09 03:50:00,